sat.trackr.live / text

‹ back to catalog

MERCURY ONE (M1)

NORAD 66742 · 2025-276CE

PAYLOAD ACTIVE UNKNOWN

§ Identity

Operator
Country
US
Launch date
2025-11-28
Launch site
AFWTR
Launch vehicle
Mass (kg)
RCS (m²)

External: N2YO · Heavens-Above · Gunter

§ Orbital elements

Epoch: 2026-09-20T10:59:13.331616Z

Period
94.72 min
Inclination
97.4112°
Eccentricity
0.0002686
Mean motion
15.20295515 rev/d
Perigee alt
503.1 km
Apogee alt
506.8 km
Semi-major
6,883.1 km
B*
1.2834e-4
RAAN
335.3783°
Arg perigee
35.7881°
Mean anomaly
324.3534°
Rev number
4,489

§ Raw data

MERCURY ONE (M1)1 66742U 25276CE  26263.45779319  .00002720  00000+0  12834-3 0  99922 66742  97.4112 335.3783 0002686  35.7881 324.3534 15.20295515 44891

JSON: /api/v1/satellites/66742 · /tle

For live sub-satellite position, see the globe view (requires WebGL).

§ Visibility from observer

Set your observer location to see the next 7 days of passes ≥ 10°. The values pass through the URL so the page stays shareable.

No JS? Fill the form by hand. The geolocation button needs JavaScript.